[[{"header":{"parameterUnit":"m.s-1","parameterCategory":1,"la1":30.2991,"la2":30.254,"lo1":-89.0895,"lo2":-89.0444,"dy":0.0017,"dx":0.0017,"nx":28,"ny":28,"refTime":"2025-06-11T09:00:00:Z","depth":0,"parameterNumber":2,"parameterNumberName":"U-component_of_WINDS"},"data":[0,0,0,0,0,0,0,0,0,0,0,0,0,0,0,0,0,0,0,0,0,0,0,0,0,0,0,0,0,0,0,0,0,0,0,0,0,0,0,0,0,0,0,0,0,0,0,0,0,0,0,0,0,0,0,0,0,0,-0.7856,-0.7857,0,-0.7896,-0.7896,-0.7897,-0.7902,-0.7902,-0.7901,-0.7901,-0.7943,-0.7944,-0.7945,0,0,0,0,0,0,0,0,0,0,0,0,0,-0.7787,-0.7789,-0.7856,-0.7857,-0.7857,-0.7896,-0.7896,-0.7897,-0.7902,-0.7902,-0.7901,-0.7901,-0.7942,-0.7944,-0.7946,0,0,0,0,0,0,0,0,0,0,0,0,0,-0.7821,-0.7789,-0.7856,-0.7865,-0.7866,-0.7896,-0.7896,-0.7897,-0.7902,-0.7902,-0.7901,-0.79,-0.7942,-0.7944,-0.7946,-0.7971,0,0,-0.7953,-0.7954,0,0,0,0,0,0,0,0,-0.7819,-0.7824,-0.7863,-0.7864,-0.7865,-0.7893,-0.7887,-0.7922,-0.7902,-0.7888,-0.7901,-0.79,-0.7927,-0.793,-0.7939,-0.7973,-0.7975,-0.7953,-0.7954,-0.7955,-0.7956,0,0,0,0,0,0,0,-0.7817,-0.7822,-0.7872,-0.7863,-0.7865,-0.7867,-0.7871,-0.7894,-0.791,-0.7889,-0.789,-0.7894,-0.7927,-0.7937,-0.794,-0.7975,-0.7953,-0.7955,-0.7956,-0.7957,-0.8033,-0.8033,0,0,0,0,0,0,-0.7813,-0.782,-0.7871,-0.7873,-0.784,-0.7869,-0.7873,-0.7885,-0.791,-0.7913,-0.7895,-0.7895,-0.7933,-0.7937,-0.7941,-0.7973,-0.7955,-0.7957,-0.7958,-0.8032,-0.8033,-0.8034,0,0,0,0,0,0,-0.7811,-0.7817,-0.7869,-0.7847,-0.7854,-0.787,-0.7884,-0.7886,-0.7895,-0.7914,-0.7917,-0.7901,-0.7933,-0.7938,-0.7964,-0.7974,-0.7958,-0.796,-0.8031,-0.8032,-0.8033,-0.8036,0,0,0,0,0,0,-0.7809,-0.7817,-0.7826,-0.7847,-0.7855,-0.789,-0.7884,-0.7887,-0.7899,-0.7899,-0.7921,-0.7924,-0.7933,-0.796,-0.7966,-0.7977,-0.7962,-0.803,-0.8032,-0.8033,-0.8035,-0.8037,-0.8038,0,0,0,0,0,-0.7807,-0.7825,-0.7826,-0.7832,-0.7866,-0.7891,-0.7895,-0.7905,-0.79,-0.791,-0.7922,-0.7923,-0.7972,-0.7963,-0.7969,-0.7981,-0.803,-0.8031,-0.8033,-0.8034,-0.8036,-0.8038,0,0,0,0,0,0,-0.7805,-0.7828,-0.783,-0.7855,-0.7871,-0.7892,-0.7904,-0.7907,-0.7925,-0.7924,-0.7935,-0.794,-0.7965,-0.7976,-0.7965,-0.8007,-0.8001,-0.8004,-0.7999,-0.8002,-0.8003,-0.8,-0.7964,0,0,0,0,0,-0.7808,-0.7825,-0.7844,-0.7865,-0.7873,-0.7887,-0.7898,-0.7904,-0.7921,-0.7928,-0.7942,-0.7959,-0.7978,-0.799,-0.8009,-0.8036,-0.8041,-0.8048,-0.805,-0.8051,-0.8053,-0.8069,-0.8072,-0.8039,-0.8039,-0.8039,0,0,-0.7814,-0.7828,-0.7838,-0.7865,-0.7878,-0.7896,-0.7893,-0.7912,-0.7926,-0.7931,-0.7956,-0.7967,-0.7986,-0.8013,-0.8025,-0.8023,-0.8064,-0.8053,-0.8054,-0.8056,-0.8071,-0.8074,-0.8077,-0.804,-0.804,-0.8039,0,0,-0.7833,-0.7846,-0.7865,-0.7878,-0.7897,-0.7907,-0.7911,-0.7932,-0.7939,-0.7964,-0.7968,-0.7985,-0.8018,-0.8032,-0.8043,-0.8069,-0.8071,-0.8075,-0.8084,-0.8099,-0.8102,-0.8104,-0.8114,-0.8117,-0.8077,-0.8077,-0.8077,0,-0.7838,-0.7865,-0.7874,-0.7893,-0.7905,-0.791,-0.793,-0.7943,-0.7967,-0.7976,-0.7972,-0.8014,-0.8027,-0.8058,-0.8064,-0.8073,-0.8079,-0.8072,-0.8101,-0.8103,-0.8106,-0.8115,-0.8118,-0.8077,-0.8077,-0.8077,-0.8077,0,-0.787,-0.7889,-0.7902,-0.7925,-0.7939,-0.7958,-0.7971,-0.7984,-0.7989,-0.7999,-0.8024,-0.8041,-0.8063,-0.8071,-0.8076,-0.8102,-0.81,-0.8098,-0.8092,-0.8109,-0.8118,-0.8121,-0.8078,-0.8078,-0.8078,-0.8078,0,0,-0.789,-0.7918,-0.7923,-0.7934,-0.7956,-0.7971,-0.7991,-0.8012,-0.8023,-0.8041,-0.8058,-0.8086,-0.8085,-0.8098,-0.8105,-0.8118,-0.8138,-0.8115,-0.8116,-0.8119,-0.8168,-0.8169,-0.8173,-0.8139,-0.814,-0.8141,-0.8166,0,-0.7912,-0.7947,-0.7956,-0.7986,-0.8004,-0.801,-0.8027,-0.8043,-0.8053,-0.807,-0.8082,-0.8101,-0.8098,-0.8106,-0.812,-0.8132,-0.8148,-0.8131,-0.8156,-0.8157,-0.8151,-0.8177,-0.8178,-0.8202,-0.817,-0.8171,-0.8171,0,-0.7943,-0.796,-0.7992,-0.8012,-0.802,-0.8036,-0.8056,-0.8073,-0.8091,-0.8098,-0.8112,-0.8118,-0.814,-0.8132,-0.8163,-0.8151,-0.8162,-0.817,-0.8171,-0.8174,-0.8165,-0.8181,-0.821,-0.8213,-0.8176,-0.8176,-0.8176,0,-0.7955,-0.7986,-0.8009,-0.8018,-0.8042,-0.8053,-0.8064,-0.8082,-0.8094,-0.8113,-0.8121,-0.8142,-0.8153,-0.817,-0.8181,-0.8174,-0.8211,-0.8204,-0.8217,-0.8217,-0.8224,-0.8224,-0.8255,-0.8231,-0.8231,-0.8231,-0.8231,0,-0.7979,-0.7998,-0.8015,-0.8029,-0.8051,-0.8062,-0.8083,-0.8094,-0.811,-0.8127,-0.8133,-0.8149,-0.8163,-0.8181,-0.819,-0.8215,-0.822,-0.8226,-0.8228,-0.8225,-0.8225,-0.8233,-0.8232,-0.8232,-0.8232,-0.8232,-0.8232,0,-0.7995,-0.8007,-0.8033,-0.8054,-0.8059,-0.8075,-0.8093,-0.8107,-0.8118,-0.8139,-0.8145,-0.8161,-0.8183,-0.8196,-0.8223,-0.8229,-0.8256,-0.8258,-0.825,-0.8251,-0.8263,-0.8262,-0.8301,-0.8307,-0.8279,-0.8279,-0.8279,0,-0.801,-0.8025,-0.8047,-0.8059,-0.807,-0.8088,-0.8101,-0.8112,-0.8125,-0.8148,-0.816,-0.8182,-0.82,-0.8234,-0.8249,-0.827,-0.8272,-0.8285,-0.8276,-0.8273,-0.8273,-0.8272,-0.8274,-0.8286,-0.8286,-0.8287,-0.8287,0,-0.8036,-0.8041,-0.8058,-0.8078,-0.8093,-0.811,-0.8126,-0.8136,-0.815,-0.8164,-0.8186,-0.82,-0.8228,-0.825,-0.8273,-0.8284,-0.8288,-0.8289,-0.8294,-0.8291,-0.8286,-0.8289,-0.8254,-0.8289,-0.8288,-0.8288,-0.8288,-0.8288,-0.8052,-0.8066,-0.8084,-0.8103,-0.8117,-0.8132,-0.8147,-0.8159,-0.8177,-0.82,-0.8206,-0.8229,-0.8248,-0.8279,-0.8291,-0.831,-0.8308,-0.8314,-0.8315,-0.8317,-0.8317,-0.8283,-0.8314,-0.8314,-0.8314,-0.8314,-0.8314,0,-0.8078,-0.809,-0.8108,-0.813,-0.8146,-0.8148,-0.8166,-0.8179,-0.8199,-0.8216,-0.8234,-0.826,-0.8281,-0.8297,-0.8319,-0.8331,-0.8334,-0.8337,-0.8336,-0.8339,-0.8317,-0.8312,-0.8334,-0.8334,-0.8334,-0.8334,-0.8334,-0.8334,-0.8093,-0.8117,-0.8124,-0.8154,-0.8166,-0.8188,-0.8199,-0.8213,-0.8227,-0.8255,-0.8272,-0.8283,-0.83,-0.8323,-0.8343,-0.8347,-0.8355,-0.8358,-0.8363,-0.8343,-0.834,-0.8338,-0.8333,-0.836,-0.836,-0.8383,-0.8383,-0.8383]},{"header":{"parameterUnit":"m.s-1","parameterCategory":1,"la1":30.2991,"la2":30.254,"lo1":-89.0895,"lo2":-89.0444,"dy":0.0017,"dx":0.0017,"nx":28,"ny":28,"refTime":"2025-06-11T09:00:00:Z","depth":0,"parameterNumber":3,"parameterNumberName":"V-component_of_WINDS"},"data":[0,0,0,0,0,0,0,0,0,0,0,0,0,0,0,0,0,0,0,0,0,0,0,0,0,0,0,0,0,0,0,0,0,0,0,0,0,0,0,0,0,0,0,0,0,0,0,0,0,0,0,0,0,0,0,0,0,0,3.6496,3.6496,0,3.6549,3.655,3.655,3.6512,3.651,3.6508,3.6507,3.6559,3.6562,3.6565,0,0,0,0,0,0,0,0,0,0,0,0,0,3.6356,3.6359,3.6496,3.6496,3.6497,3.6549,3.655,3.6551,3.6512,3.651,3.6508,3.6506,3.6558,3.6562,3.6565,0,0,0,0,0,0,0,0,0,0,0,0,0,3.6414,3.636,3.6496,3.6484,3.6484,3.6549,3.655,3.6551,3.6512,3.651,3.6507,3.6505,3.6557,3.6561,3.6566,3.6645,0,0,3.6579,3.6581,0,0,0,0,0,0,0,0,3.641,3.6419,3.6485,3.6485,3.6485,3.6521,3.652,3.6582,3.6513,3.6501,3.6507,3.6504,3.6548,3.6553,3.6569,3.6647,3.6649,3.658,3.6583,3.6584,3.6586,0,0,0,0,0,0,0,3.6407,3.6416,3.6517,3.6486,3.6486,3.6475,3.648,3.6531,3.6539,3.6502,3.65,3.6507,3.6548,3.6565,3.657,3.665,3.658,3.6584,3.6586,3.6588,3.6792,3.6795,0,0,0,0,0,0,3.6404,3.6413,3.6515,3.6518,3.6441,3.6479,3.6486,3.6512,3.6538,3.6539,3.6509,3.6505,3.6558,3.6565,3.6572,3.6663,3.6584,3.6589,3.6591,3.6789,3.6793,3.6796,0,0,0,0,0,0,3.6401,3.6414,3.6513,3.6465,3.6477,3.6485,3.6515,3.6514,3.6531,3.6543,3.6543,3.6525,3.6557,3.6565,3.6626,3.6665,3.6591,3.6595,3.6786,3.679,3.6794,3.6849,0,0,0,0,0,0,3.6397,3.6413,3.6444,3.6466,3.648,3.6568,3.6517,3.6517,3.654,3.6535,3.6558,3.656,3.6555,3.662,3.6631,3.667,3.6598,3.6783,3.6788,3.6793,3.6844,3.6855,3.6864,0,0,0,0,0,3.6393,3.6458,3.6446,3.6458,3.6519,3.657,3.6578,3.6572,3.6543,3.6573,3.658,3.6559,3.6659,3.6626,3.6638,3.6679,3.678,3.6786,3.6792,3.6839,3.6852,3.6864,0,0,0,0,0,0,3.644,3.646,3.6448,3.6522,3.6545,3.6564,3.6602,3.6587,3.6618,3.6612,3.6602,3.6608,3.6671,3.6681,3.6645,3.6755,3.6715,3.6724,3.6746,3.6759,3.6769,3.6764,3.6602,0,0,0,0,0,3.6459,3.65,3.6515,3.6579,3.6591,3.6595,3.6617,3.6611,3.6633,3.6643,3.6654,3.6676,3.6712,3.6736,3.677,3.6845,3.6848,3.6879,3.6889,3.6897,3.6904,3.6942,3.6955,3.6816,3.6816,3.6816,0,0,3.6499,3.6515,3.6542,3.6589,3.6606,3.6647,3.6603,3.6649,3.6679,3.6649,3.6707,3.6716,3.674,3.6807,3.6838,3.6818,3.6944,3.6905,3.6911,3.6914,3.695,3.6963,3.6974,3.682,3.6819,3.6818,0,0,3.6592,3.6609,3.6663,3.6681,3.6707,3.6708,3.6721,3.6742,3.6747,3.6805,3.6782,3.6817,3.688,3.6897,3.6914,3.7011,3.6992,3.7023,3.7074,3.7111,3.7122,3.7131,3.7164,3.7176,3.703,3.703,3.703,0,3.6638,3.67,3.6693,3.674,3.676,3.6735,3.6788,3.6805,3.6841,3.6855,3.6832,3.6909,3.6924,3.6993,3.7017,3.7032,3.7045,3.7019,3.7121,3.713,3.7139,3.717,3.7182,3.7034,3.7033,3.7033,3.7033,0,3.6754,3.6797,3.6837,3.6872,3.6897,3.6947,3.6945,3.6971,3.6962,3.6965,3.7023,3.7039,3.7075,3.7091,3.7083,3.7159,3.7146,3.7122,3.7081,3.7156,3.7184,3.7196,3.7038,3.7037,3.7036,3.7035,0,0,3.6879,3.6907,3.6922,3.6936,3.6962,3.6994,3.7042,3.7077,3.7098,3.7123,3.7161,3.7214,3.7192,3.7211,3.7204,3.7237,3.7309,3.7209,3.7209,3.7225,3.7391,3.7407,3.7421,3.7297,3.7299,3.7301,3.7388,0,3.6972,3.7055,3.7049,3.7127,3.7165,3.7141,3.7182,3.7201,3.7205,3.7237,3.7241,3.7278,3.7247,3.7258,3.7289,3.7294,3.7342,3.7288,3.733,3.7332,3.7324,3.7437,3.7455,3.7536,3.74,3.7402,3.7403,0,3.7092,3.712,3.7202,3.7219,3.7235,3.7272,3.7302,3.7333,3.7353,3.7354,3.7374,3.7361,3.7407,3.7365,3.7427,3.739,3.7407,3.7412,3.7415,3.7418,3.7371,3.744,3.7563,3.7574,3.7421,3.7419,3.7418,0,3.7172,3.723,3.7286,3.7299,3.7322,3.7348,3.7358,3.7376,3.7396,3.7422,3.7435,3.7466,3.7483,3.7506,3.7501,3.7472,3.7563,3.7522,3.7563,3.7563,3.7583,3.7581,3.7707,3.7596,3.7596,3.7596,3.7596,0,3.7275,3.7326,3.7322,3.7356,3.7411,3.7403,3.7457,3.7464,3.748,3.7513,3.7495,3.7526,3.7518,3.7549,3.7546,3.7596,3.7604,3.7604,3.7602,3.7605,3.7605,3.7615,3.7609,3.7599,3.7599,3.7598,3.7597,0,3.7374,3.7374,3.7433,3.7448,3.7453,3.7493,3.7505,3.7537,3.7538,3.7581,3.7591,3.7593,3.7628,3.7626,3.7666,3.7663,3.7724,3.7717,3.7718,3.7715,3.7756,3.7751,3.7892,3.7909,3.7788,3.779,3.7791,0,3.7439,3.7477,3.7497,3.7518,3.753,3.7565,3.7585,3.7577,3.7599,3.7624,3.7651,3.7685,3.7711,3.7769,3.7773,3.7803,3.7794,3.7842,3.7799,3.7799,3.7793,3.779,3.7792,3.785,3.7851,3.7852,3.7853,0,3.7555,3.7552,3.7583,3.7612,3.7637,3.766,3.7682,3.77,3.7694,3.7719,3.7755,3.7775,3.7815,3.7848,3.7876,3.7885,3.7867,3.7867,3.7877,3.788,3.7878,3.7877,3.7739,3.7863,3.7862,3.7861,3.7861,3.786,3.7637,3.7669,3.7686,3.772,3.7735,3.7755,3.7784,3.7789,3.7819,3.7851,3.7844,3.7884,3.79,3.7936,3.7947,3.7977,3.796,3.7976,3.798,3.7984,3.7987,3.7874,3.7982,3.7982,3.7982,3.7982,3.7981,0,3.775,3.7759,3.779,3.782,3.7846,3.7828,3.7849,3.7872,3.7907,3.7924,3.795,3.799,3.8021,3.8027,3.8056,3.8079,3.8071,3.8086,3.8084,3.8086,3.8002,3.7989,3.8092,3.8092,3.8092,3.8092,3.8092,3.8092,3.7811,3.7863,3.7862,3.7919,3.7928,3.7967,3.7981,3.7998,3.8011,3.8056,3.8082,3.8086,3.8098,3.8128,3.8154,3.8155,3.8166,3.8184,3.8182,3.8103,3.8092,3.8081,3.8069,3.8187,3.8187,3.8263,3.8263,3.8264]}]]